TimeMST,TemperatureF,Dew PointF,Humidity,Sea Level PressureIn,VisibilityMPH,Wind Direction,Wind SpeedMPH,Gust SpeedMPH,PrecipitationIn,Events,Conditions,WindDirDegrees,DateUTC
12:53 AM,17.1,6.1,62,30.02,10.0,Calm,Calm,-,N/A,,Clear,0,2013-02-08 07:53:00
1:53 AM,14.0,6.1,71,30.02,10.0,Variable,3.5,-,N/A,,Clear,0,2013-02-08 08:53:00
2:53 AM,12.0,3.9,70,30.02,10.0,Variable,3.5,-,N/A,,Clear,0,2013-02-08 09:53:00
3:53 AM,9.0,1.9,73,30.02,10.0,Calm,Calm,-,N/A,,Clear,0,2013-02-08 10:53:00
4:53 AM,10.9,3.9,73,30.04,10.0,North,3.5,-,N/A,,Clear,10,2013-02-08 11:53:00
5:53 AM,28.0,8.1,43,29.98,10.0,Variable,3.5,-,N/A,,Clear,0,2013-02-08 12:53:00
6:53 AM,30.9,12.0,46,29.97,10.0,WSW,10.4,-,N/A,,Clear,250,2013-02-08 13:53:00
7:53 AM,35.1,12.0,39,29.97,10.0,Calm,Calm,-,N/A,,Clear,0,2013-02-08 14:53:00
8:53 AM,32.0,15.1,50,29.98,10.0,WNW,3.5,-,N/A,,Clear,300,2013-02-08 15:53:00
9:53 AM,37.0,14.0,39,29.94,10.0,NNW,8.1,-,N/A,,Clear,330,2013-02-08 16:53:00
10:53 AM,41.0,15.1,35,29.93,10.0,NW,10.4,-,N/A,,Clear,310,2013-02-08 17:53:00
11:53 AM,46.0,15.1,29,29.88,10.0,WNW,11.5,-,N/A,,Clear,300,2013-02-08 18:53:00
12:53 PM,48.0,15.1,27,29.84,10.0,NW,11.5,-,N/A,,Clear,320,2013-02-08 19:53:00
1:53 PM,53.1,14.0,21,29.81,10.0,North,9.2,-,N/A,,Clear,350,2013-02-08 20:53:00
2:53 PM,44.1,10.9,26,29.87,10.0,East,15.0,-,N/A,,Overcast,80,2013-02-08 21:53:00
3:53 PM,46.0,10.0,23,29.85,10.0,ENE,12.7,-,N/A,,Clear,70,2013-02-08 22:53:00
4:53 PM,37.0,10.0,33,29.90,10.0,NNE,6.9,-,N/A,,Clear,20,2013-02-08 23:53:00
5:53 PM,33.1,10.0,38,29.84,10.0,NNE,10.4,-,N/A,,Scattered Clouds,30,2013-02-09 00:53:00
6:53 PM,36.0,15.1,43,29.83,10.0,NNE,5.8,-,N/A,,Overcast,30,2013-02-09 01:53:00
7:53 PM,35.1,15.1,44,29.82,10.0,NE,10.4,-,N/A,,Mostly Cloudy,40,2013-02-09 02:53:00
8:53 PM,32.0,15.1,50,29.84,10.0,NNW,4.6,-,N/A,,Scattered Clouds,330,2013-02-09 03:53:00
9:53 PM,32.0,15.1,50,29.83,10.0,NNW,10.4,-,N/A,,Partly Cloudy,330,2013-02-09 04:53:00
10:53 PM,30.9,18.0,59,29.79,10.0,North,8.1,-,N/A,,Scattered Clouds,10,2013-02-09 05:53:00
11:53 PM,30.0,19.0,64,29.81,10.0,NW,10.4,-,N/A,,Mostly Cloudy,310,2013-02-09 06:53:00